Terminal Aerodrome Forecast
Issued by NWS

Home | Current Version | Previous Version | Text Only | Print | Product List | Glossary On
Versions: 1 2 3 4 5 6 7 8 9 10 11 12 13 14 15 16 17 18 19 20 21 22 23 24 25 26 27 28 29 30 31 32 33 34 35 36 37 38 39 40 41 42 43 44 45 46 47 48 49 50
000
FTAK31 PANC 280222 CCA
TAFASN
TAF COR
PASN 280222Z 2802/2824 17008KT P6SM VCFG SCT009 OVC025
      TEMPO 2802/2806 5SM -RA BR BKN009
     FM280600 17005KT 5SM BR OVC003
     FM281200 18008KT 1 1/2SM BR BKN002 OVC008=

USA.gov is the U.S. government's official web portal to all federal, state and local government web resources and services.